FIN350 EFHK-EHAM

Flight info

Callsign FIN350
Flight time N/A
Altitude 40000
Route VALOX4P VALOX Y117 ROSAX DCT KESUR DCT BLUFA BLUFA1A
Aircraft A359/H-SDE2E3GHIJ3J4J5LM1ORWXY/LB1D1

Departure

Time 2026-04-21 16:31
Airport Helsinki Vantaa Airport (EFHK)

Arrival

Time N/A
Airport Amsterdam Airport Schiphol (EHAM)
Time Latitude Longitude Altitude Speed Heading
2026-04-21 16:19 60.31910 24.97020 169 ft 0 kts 222°
2026-04-21 16:22 60.31910 24.97019 169 ft 0 kts 222°
2026-04-21 16:22 60.31912 24.97022 169 ft 2 kts 225°
2026-04-21 16:22 60.31922 24.97050 164 ft 3 kts 245°
2026-04-21 16:22 60.31927 24.97083 168 ft 3 kts 265°
2026-04-21 16:23 60.31927 24.97118 168 ft 3 kts 285°
2026-04-21 16:23 60.31925 24.97129 168 ft 1 kts 294°
2026-04-21 16:23 60.31934 24.97098 169 ft 5 kts 303°
2026-04-21 16:23 60.31970 24.97037 169 ft 9 kts 329°
2026-04-21 16:24 60.32040 24.96967 169 ft 13 kts 334°
2026-04-21 16:24 60.32045 24.96962 169 ft 0 kts 334°
2026-04-21 16:26 60.32046 24.96961 169 ft 1 kts 334°
2026-04-21 16:27 60.32061 24.96945 169 ft 5 kts 331°
2026-04-21 16:27 60.32102 24.96892 169 ft 9 kts 325°
2026-04-21 16:27 60.32171 24.96813 170 ft 13 kts 335°
2026-04-21 16:27 60.32268 24.96753 170 ft 15 kts
2026-04-21 16:28 60.32354 24.96901 170 ft 19 kts 46°
2026-04-21 16:28 60.32447 24.97113 173 ft 21 kts 47°
2026-04-21 16:28 60.32554 24.97352 170 ft 25 kts 47°
2026-04-21 16:28 60.32683 24.97633 168 ft 29 kts 48°
2026-04-21 16:29 60.32776 24.97839 167 ft 31 kts 47°
2026-04-21 16:29 60.32972 24.97736 168 ft 28 kts 266°
2026-04-21 16:29 60.32870 24.97482 167 ft 23 kts 228°
2026-04-21 16:29 60.32763 24.97242 169 ft 10 kts 227°
2026-04-21 16:30 60.32761 24.97238 169 ft 0 kts 227°
2026-04-21 16:30 60.32761 24.97237 169 ft 1 kts 227°
2026-04-21 16:30 60.32555 24.96792 172 ft 96 kts 228°
2026-04-21 16:30 60.31920 24.95310 300 ft 174 kts 231°
2026-04-21 16:31 60.31035 24.93281 853 ft 207 kts 230°
2026-04-21 16:31 60.29891 24.91222 1488 ft 235 kts 212°
2026-04-21 16:31 60.28403 24.89624 2307 ft 250 kts 208°
2026-04-21 16:31 60.26825 24.87962 3100 ft 260 kts 210°
2026-04-21 16:32 60.25214 24.86186 4012 ft 266 kts 210°
2026-04-21 16:32 60.23552 24.84438 4938 ft 272 kts 202°
2026-04-21 16:32 60.21748 24.83374 5844 ft 275 kts 193°
2026-04-21 16:32 60.19860 24.82541 6742 ft 281 kts 191°
2026-04-21 16:33 60.17904 24.81682 7586 ft 287 kts 191°
2026-04-21 16:33 60.15968 24.80786 8446 ft 292 kts 193°
2026-04-21 16:33 60.14091 24.79132 9291 ft 298 kts 213°
2026-04-21 16:33 60.12415 24.76604 10182 ft 303 kts 219°
2026-04-21 16:34 60.10737 24.73877 10700 ft 320 kts 219°
2026-04-21 16:34 60.08958 24.70973 11126 ft 338 kts 219°
2026-04-21 16:34 60.07110 24.67968 11785 ft 346 kts 219°
2026-04-21 16:34 60.05224 24.64919 12539 ft 351 kts 219°
2026-04-21 16:35 60.03304 24.61825 13307 ft 356 kts 219°
2026-04-21 16:35 60.01357 24.58697 14020 ft 362 kts 219°
2026-04-21 16:35 59.99408 24.55571 14694 ft 366 kts 219°
2026-04-21 16:35 59.97408 24.52369 15396 ft 370 kts 219°
2026-04-21 16:36 59.95388 24.49143 16106 ft 374 kts 218°
2026-04-21 16:36 59.93344 24.45883 16826 ft 377 kts 218°
2026-04-21 16:36 59.91283 24.42601 17527 ft 382 kts 218°
2026-04-21 16:36 59.89195 24.39283 18236 ft 385 kts 218°
2026-04-21 16:37 59.87802 24.37074 18663 ft 388 kts 218°
2026-04-21 16:37 59.85680 24.33710 19251 ft 392 kts 218°
2026-04-21 16:37 59.83529 24.30307 19823 ft 396 kts 217°
2026-04-21 16:37 59.81369 24.26896 20415 ft 400 kts 217°
2026-04-21 16:38 59.79174 24.23436 20997 ft 404 kts 217°
2026-04-21 16:38 59.76959 24.19949 21578 ft 408 kts 217°
2026-04-21 16:38 59.74723 24.16435 22150 ft 412 kts 217°
2026-04-21 16:38 59.72461 24.12935 22728 ft 415 kts 216°
2026-04-21 16:39 59.70140 24.09484 23302 ft 419 kts 215°
2026-04-21 16:39 59.67777 24.06064 23843 ft 423 kts 214°
2026-04-21 16:39 59.65370 24.02643 24361 ft 426 kts 214°
2026-04-21 16:39 59.62951 23.99239 24870 ft 429 kts 214°
2026-04-21 16:40 59.60494 23.95797 25391 ft 433 kts 213°
2026-04-21 16:40 59.58059 23.92387 25926 ft 437 kts 213°
2026-04-21 16:40 59.55567 23.88897 26479 ft 441 kts 213°
2026-04-21 16:40 59.53062 23.85388 27064 ft 444 kts 213°
2026-04-21 16:41 59.50549 23.81773 27675 ft 449 kts 217°
2026-04-21 16:41 59.48248 23.77551 28256 ft 456 kts 227°
2026-04-21 16:41 59.46354 23.72505 28849 ft 461 kts 239°
2026-04-21 16:41 59.44787 23.66995 29438 ft 465 kts 242°
2026-04-21 16:42 59.43324 23.61271 30033 ft 470 kts 244°
2026-04-21 16:42 59.41913 23.55439 30548 ft 474 kts 245°
2026-04-21 16:42 59.40512 23.49555 31094 ft 477 kts 245°
2026-04-21 16:42 59.39096 23.43638 31650 ft 480 kts 245°
2026-04-21 16:43 59.37660 23.37709 32185 ft 483 kts 244°
2026-04-21 16:43 59.36198 23.31749 32693 ft 486 kts 244°
2026-04-21 16:43 59.34731 23.25832 33184 ft 490 kts 244°
2026-04-21 16:43 59.33236 23.19838 33808 ft 490 kts 244°
2026-04-21 16:44 59.31735 23.13853 34516 ft 487 kts 244°
2026-04-21 16:44 59.30241 23.07917 35140 ft 485 kts 244°
2026-04-21 16:44 59.28749 23.02008 35746 ft 483 kts 244°
2026-04-21 16:44 59.27262 22.96128 36313 ft 482 kts 244°
2026-04-21 16:45 59.25775 22.90264 36851 ft 481 kts 244°
2026-04-21 16:45 59.24284 22.84399 37375 ft 481 kts 244°
2026-04-21 16:45 59.22796 22.78554 37881 ft 481 kts 244°
2026-04-21 16:45 59.21303 22.72706 38418 ft 480 kts 244°
2026-04-21 16:46 59.19813 22.66883 38911 ft 479 kts 244°
2026-04-21 16:46 59.18319 22.61059 39278 ft 479 kts 244°
2026-04-21 16:46 59.16827 22.55256 39650 ft 479 kts 244°
2026-04-21 16:46 59.15331 22.49454 40007 ft 479 kts 244°
2026-04-21 16:47 59.13829 22.43644 40145 ft 479 kts 244°
2026-04-21 16:47 59.10883 22.32290 40176 ft 491 kts 243°
2026-04-21 16:48 59.07682 22.20025 40183 ft 508 kts 243°
2026-04-21 16:48 59.04421 22.07592 40186 ft 524 kts 243°
2026-04-21 16:49 59.01070 21.94885 40192 ft 530 kts 243°
2026-04-21 16:49 58.97686 21.82127 40195 ft 531 kts 243°
2026-04-21 16:50 58.94298 21.69429 40197 ft 531 kts 243°
2026-04-21 16:50 58.90893 21.56740 40199 ft 531 kts 243°
2026-04-21 16:51 58.87478 21.44082 40207 ft 531 kts 243°
2026-04-21 16:51 58.84056 21.31476 40205 ft 531 kts 242°
2026-04-21 16:52 58.80642 21.18963 40207 ft 531 kts 242°
2026-04-21 16:52 58.77193 21.06397 40211 ft 531 kts 242°
2026-04-21 16:53 58.73728 20.93835 40216 ft 531 kts 242°
2026-04-21 16:53 58.70274 20.81385 40220 ft 531 kts 242°
2026-04-21 16:54 58.66783 20.68871 40226 ft 531 kts 242°
2026-04-21 16:54 58.63283 20.56393 40229 ft 531 kts 242°
2026-04-21 16:55 58.59764 20.43914 40233 ft 531 kts 242°
2026-04-21 16:55 58.56243 20.31496 40231 ft 530 kts 241°
2026-04-21 16:56 58.52710 20.19102 40238 ft 530 kts 241°
2026-04-21 16:56 58.49163 20.06727 40240 ft 530 kts 241°
2026-04-21 16:57 58.45628 19.94460 40246 ft 530 kts 241°
2026-04-21 16:57 58.42057 19.82134 40248 ft 530 kts 241°
2026-04-21 16:58 58.38484 19.69863 40252 ft 529 kts 241°
2026-04-21 16:58 58.34895 19.57608 40252 ft 529 kts 240°
2026-04-21 16:59 58.31293 19.45369 40252 ft 529 kts 240°
2026-04-21 16:59 58.27686 19.33178 40253 ft 529 kts 240°
2026-04-21 17:00 58.24064 19.21000 40258 ft 529 kts 240°
2026-04-21 17:00 58.21049 19.10914 40259 ft 529 kts 240°
2026-04-21 17:01 58.16820 18.96837 40258 ft 529 kts 240°
2026-04-21 17:01 58.13164 18.84740 40259 ft 529 kts 240°
2026-04-21 17:02 58.09502 18.72680 40259 ft 529 kts 240°
2026-04-21 17:02 58.05821 18.60627 40263 ft 529 kts 240°
2026-04-21 17:03 58.02138 18.48621 40268 ft 529 kts 240°
2026-04-21 17:03 57.98437 18.36619 40260 ft 528 kts 239°
2026-04-21 17:04 57.94737 18.24680 40262 ft 528 kts 239°
2026-04-21 17:04 57.91018 18.12745 40267 ft 528 kts 239°
2026-04-21 17:05 57.87289 18.00838 40263 ft 528 kts 239°
2026-04-21 17:05 57.83553 17.88970 40264 ft 528 kts 239°
2026-04-21 17:06 57.79804 17.77117 40264 ft 528 kts 239°
2026-04-21 17:06 57.76039 17.65275 40269 ft 528 kts 239°
2026-04-21 17:07 57.72906 17.55465 40272 ft 528 kts 239°
2026-04-21 17:07 57.68484 17.41688 40274 ft 528 kts 239°
2026-04-21 17:08 57.64709 17.29988 40276 ft 529 kts 239°
2026-04-21 17:08 57.60898 17.18239 40274 ft 529 kts 239°
2026-04-21 17:09 57.55161 17.00659 40276 ft 529 kts 238°
2026-04-21 17:09 57.51318 16.88956 40279 ft 529 kts 238°
2026-04-21 17:10 57.47473 16.77302 40277 ft 528 kts 238°
2026-04-21 17:10 57.43617 16.65672 40278 ft 528 kts 238°
2026-04-21 17:11 57.39782 16.54165 40280 ft 528 kts 238°
2026-04-21 17:11 57.35911 16.42604 40279 ft 526 kts 238°
2026-04-21 17:12 57.34007 16.36938 40275 ft 509 kts 238°
2026-04-21 17:12 57.32164 16.31467 40276 ft 494 kts 238°
2026-04-21 17:12 57.30366 16.26144 40281 ft 479 kts 238°
2026-04-21 17:12 57.28613 16.20964 40286 ft 471 kts 238°
2026-04-21 17:13 57.25148 16.10753 40286 ft 469 kts 238°
2026-04-21 17:13 57.21670 16.00547 40285 ft 469 kts 238°
2026-04-21 17:14 57.18182 15.90357 40289 ft 472 kts 238°
2026-04-21 17:14 57.14699 15.80228 40290 ft 470 kts 238°
2026-04-21 17:15 57.11194 15.70075 40286 ft 469 kts 238°
2026-04-21 17:15 57.07684 15.59949 40291 ft 469 kts 237°
2026-04-21 17:16 57.04164 15.49838 40290 ft 469 kts 237°
2026-04-21 17:16 57.00638 15.39752 40289 ft 469 kts 237°
2026-04-21 17:17 56.97112 15.29711 40161 ft 467 kts 237°
2026-04-21 17:17 56.93538 15.19573 40287 ft 473 kts 237°
2026-04-21 17:18 56.90035 15.09678 40286 ft 455 kts 237°
2026-04-21 17:18 56.86599 15.00008 40290 ft 452 kts 237°
2026-04-21 17:19 56.83180 14.90427 40292 ft 452 kts 237°
2026-04-21 17:19 56.79743 14.80832 40292 ft 452 kts 237°
2026-04-21 17:20 56.76295 14.71247 40293 ft 452 kts 237°
2026-04-21 17:20 56.72833 14.61663 40293 ft 452 kts 237°
2026-04-21 17:21 56.69391 14.52168 40296 ft 452 kts 237°
2026-04-21 17:21 56.65926 14.42651 40295 ft 452 kts 237°
2026-04-21 17:22 56.62448 14.33134 40299 ft 452 kts 237°
2026-04-21 17:22 56.59547 14.25225 40300 ft 452 kts 236°
2026-04-21 17:23 56.56056 14.15740 40305 ft 451 kts 236°
2026-04-21 17:23 56.52564 14.06292 40307 ft 451 kts 236°
2026-04-21 17:24 56.49066 13.96860 40313 ft 451 kts 236°
2026-04-21 17:24 56.45556 13.87437 40312 ft 451 kts 236°
2026-04-21 17:25 56.42043 13.78040 40322 ft 451 kts 236°
2026-04-21 17:25 56.38522 13.68659 40322 ft 451 kts 236°
2026-04-21 17:26 56.35017 13.59356 40330 ft 450 kts 236°
2026-04-21 17:26 56.31489 13.50028 40338 ft 450 kts 236°
2026-04-21 17:27 56.27955 13.40719 40353 ft 450 kts 236°
2026-04-21 17:27 56.24418 13.31438 40357 ft 450 kts 236°
2026-04-21 17:28 56.20869 13.22162 40351 ft 449 kts 236°
2026-04-21 17:28 56.17313 13.12902 40351 ft 449 kts 236°
2026-04-21 17:29 56.13758 13.03679 40336 ft 449 kts 236°
2026-04-21 17:29 56.10200 12.94485 40351 ft 449 kts 235°
2026-04-21 17:30 56.06629 12.85291 40353 ft 449 kts 235°
2026-04-21 17:30 56.03080 12.76186 40355 ft 449 kts 235°
2026-04-21 17:31 55.99500 12.67038 40360 ft 449 kts 235°
2026-04-21 17:31 55.95910 12.57899 40366 ft 449 kts 235°
2026-04-21 17:32 55.92322 12.48797 40361 ft 449 kts 235°
2026-04-21 17:32 55.88728 12.39713 40365 ft 448 kts 235°
2026-04-21 17:33 55.85144 12.30692 40359 ft 448 kts 235°
2026-04-21 17:33 55.81538 12.21646 40354 ft 448 kts 235°
2026-04-21 17:34 55.77918 12.12599 40354 ft 448 kts 234°
2026-04-21 17:34 55.74304 12.03601 40353 ft 448 kts 234°
2026-04-21 17:35 55.70674 11.94595 40337 ft 448 kts 234°
2026-04-21 17:35 55.67032 11.85593 40355 ft 450 kts 234°
2026-04-21 17:36 55.63395 11.76636 40357 ft 450 kts 234°
2026-04-21 17:36 55.59729 11.67640 40368 ft 450 kts 234°
2026-04-21 17:37 55.56063 11.58677 40365 ft 450 kts 234°
2026-04-21 17:37 55.52385 11.49718 40370 ft 450 kts 234°
2026-04-21 17:38 55.48731 11.40850 40368 ft 449 kts 234°
2026-04-21 17:38 55.45047 11.31940 40376 ft 449 kts 234°
2026-04-21 17:39 55.41348 11.23027 40372 ft 449 kts 234°
2026-04-21 17:39 55.37677 11.14214 40370 ft 449 kts 233°
2026-04-21 17:40 55.33973 11.05352 40382 ft 449 kts 233°
2026-04-21 17:40 55.30262 10.96506 40370 ft 449 kts 233°
2026-04-21 17:41 55.26552 10.87695 40378 ft 449 kts 233°
2026-04-21 17:41 55.22829 10.78885 40371 ft 449 kts 233°
2026-04-21 17:42 55.19124 10.70147 40369 ft 449 kts 233°
2026-04-21 17:42 55.15392 10.61377 40387 ft 449 kts 233°
2026-04-21 17:43 55.11664 10.52646 40372 ft 448 kts 233°
2026-04-21 17:43 55.07922 10.43915 40364 ft 448 kts 233°
2026-04-21 17:44 55.04174 10.35200 40363 ft 448 kts 233°
2026-04-21 17:44 55.00441 10.26553 40362 ft 448 kts 233°
2026-04-21 17:45 54.96679 10.17866 40382 ft 448 kts 232°
2026-04-21 17:45 54.92923 10.09225 40384 ft 448 kts 232°
2026-04-21 17:46 54.89149 10.00573 40381 ft 448 kts 232°
2026-04-21 17:46 54.85402 9.92011 40384 ft 448 kts 232°
2026-04-21 17:47 54.81485 9.83591 40384 ft 448 kts 229°
2026-04-21 17:47 54.77308 9.75543 40385 ft 448 kts 227°
2026-04-21 17:48 54.73074 9.67614 40381 ft 448 kts 227°
2026-04-21 17:48 54.68842 9.59674 40382 ft 448 kts 227°
2026-04-21 17:49 54.64714 9.51908 40365 ft 448 kts 228°
2026-04-21 17:49 54.61108 9.43207 40378 ft 446 kts 239°
2026-04-21 17:50 54.57724 9.34221 40369 ft 447 kts 237°
2026-04-21 17:50 54.54311 9.25248 40368 ft 447 kts 237°
2026-04-21 17:51 54.50960 9.16222 40376 ft 447 kts 238°
2026-04-21 17:51 54.47657 9.07226 40363 ft 442 kts 238°
2026-04-21 17:52 54.44353 8.98237 40376 ft 441 kts 238°
2026-04-21 17:52 54.41078 8.89369 40375 ft 441 kts 238°
2026-04-21 17:53 54.38322 8.81935 40358 ft 441 kts 238°
2026-04-21 17:53 54.34485 8.71631 40373 ft 440 kts 238°
2026-04-21 17:54 54.31181 8.62788 40372 ft 440 kts 238°
2026-04-21 17:54 54.27874 8.53973 40370 ft 439 kts 238°
2026-04-21 17:55 54.24585 8.45232 40372 ft 439 kts 238°
2026-04-21 17:55 54.21506 8.36243 40368 ft 437 kts 248°
2026-04-21 17:56 54.20139 8.26227 40367 ft 432 kts 270°
2026-04-21 17:56 54.20338 8.21134 40367 ft 429 kts 282°
2026-04-21 17:56 54.21128 8.16242 40369 ft 426 kts 293°
2026-04-21 17:57 54.22465 8.11745 40367 ft 423 kts 305°
2026-04-21 17:57 54.24273 8.07812 40366 ft 420 kts 316°
2026-04-21 17:57 54.26480 8.04555 40370 ft 417 kts 327°
2026-04-21 17:57 54.28989 8.02093 40371 ft 415 kts 338°
2026-04-21 17:58 54.34542 7.99755 40371 ft 411 kts 358°
2026-04-21 17:58 54.37353 7.99943 40369 ft 409 kts
2026-04-21 17:58 54.40123 8.01041 40374 ft 408 kts 19°
2026-04-21 17:59 54.42719 8.03009 40372 ft 408 kts 30°
2026-04-21 17:59 54.45061 8.05767 40374 ft 408 kts 40°
2026-04-21 17:59 54.48772 8.13114 40376 ft 409 kts 54°
2026-04-21 18:00 54.51403 8.19892 40376 ft 409 kts 56°
2026-04-21 18:00 54.54463 8.28153 40376 ft 409 kts 56°
2026-04-21 18:01 54.57524 8.36435 40377 ft 409 kts 56°
2026-04-21 18:01 54.60578 8.44638 40376 ft 408 kts 56°
2026-04-21 18:02 54.63644 8.52888 40377 ft 408 kts 56°
2026-04-21 18:02 54.66720 8.61133 40378 ft 408 kts 56°
2026-04-21 18:03 54.69768 8.69388 40377 ft 407 kts 57°
2026-04-21 18:03 54.72793 8.77673 40377 ft 407 kts 57°
2026-04-21 18:04 54.75820 8.85955 40380 ft 407 kts 57°
2026-04-21 18:04 54.78843 8.94238 40379 ft 406 kts 57°
2026-04-21 18:05 54.80347 8.98368 40376 ft 406 kts 57°